Russell, KS

2:15 AM CDT on April 20, 2018 (GMT -0500)
Russell Municipal

Weather History for KRSL - October, 2012

Change the Weather History Date:

Thursday, October 4, 2012

  Actual Average Record
Temperature  
Mean Temperature 56 °F -  
Max Temperature 61 °F 75 °F 95 °F (1963)
Min Temperature 46 °F 48 °F 28 °F (1999)
Degree Days  
Heating Degree Days 9    
Growing Degree Days 6 (Base 50)    
Moisture  
Dew Point 34 °F    
Average Humidity 49    
Maximum Humidity 63    
Minimum Humidity 33    
Precipitation  
Precipitation 0.00 in - - ()
Sea Level Pressure  
Sea Level Pressure 30.21 in    
Wind  
Wind Speed 16 mph (North)    
Max Wind Speed 28 mph    
Max Gust Speed 38 mph    
Visibility 10 miles    
Events      
Averages and records for this station are not official NWS values.
T = Trace of Precipitation, MM = Missing Value Source: NWS Daily Summary

Daily Weather History Graph

Daily Weather History Graph

Search for Another Location

Airport or City:

Astronomy

Oct. 04, 2012 Rise Set
Actual Time 7:34 AM CDT 7:12 PM CDT
Civil Twilight 7:07 AM CDT 7:39 PM CDT
Nautical Twilight 6:37 AM CDT 8:09 PM CDT
Astronomical Twilight 6:05 AM CDT 8:40 PM CDT
Moon 9:52 PM CDT (10/4) 11:50 AM CDT (10/4)
Length of Visible Light 12h 31m
Length of Day
11h 37m
Waning Gibbous, 82% of the Moon is Illuminated
Oct 4
Waning Gibbous
Oct 8
Last Quarter
Oct 15
New
Oct 21
First Quarter
Oct 29
Full

Hourly Weather History & Observations

Time (CDT) Temp. Dew Point Humidity Pressure Visibility Wind Dir Wind Speed Gust Speed Precip Events Conditions
12:23 AM 66.2 °F 44.6 °F 46% 29.98 in 10.0 mi NNW 11.5 mph - N/A   Partly Cloudy
12:53 AM 63.0 °F 44.1 °F 50% 29.98 in 10.0 mi North 19.6 mph 31.1 mph N/A   Clear
1:53 AM 55.9 °F 39.0 °F 53% 30.05 in 10.0 mi North 27.6 mph 38.0 mph N/A   Clear
2:53 AM 53.1 °F 37.9 °F 57% 30.08 in 10.0 mi North 26.5 mph 36.8 mph N/A   Clear
3:53 AM 52.0 °F 39.0 °F 61% 30.12 in 10.0 mi NNW 18.4 mph - N/A   Overcast
4:53 AM 50.0 °F 37.9 °F 63% 30.15 in 10.0 mi North 20.7 mph 33.4 mph N/A   Overcast
5:53 AM 48.9 °F 35.1 °F 59% 30.18 in 10.0 mi North 23.0 mph 34.5 mph N/A   Overcast
6:53 AM 48.0 °F 35.1 °F 61% 30.22 in 10.0 mi North 18.4 mph 26.5 mph N/A   Overcast
7:53 AM 46.9 °F 34.0 °F 61% 30.25 in 10.0 mi North 16.1 mph 25.3 mph N/A   Overcast
8:53 AM 46.9 °F 33.1 °F 59% 30.29 in 10.0 mi North 17.3 mph 27.6 mph N/A   Overcast
9:53 AM 48.0 °F 33.1 °F 56% 30.30 in 10.0 mi North 19.6 mph 26.5 mph N/A   Overcast
10:53 AM 52.0 °F 32.0 °F 47% 30.30 in 10.0 mi North 20.7 mph 27.6 mph N/A   Clear
11:53 AM 54.0 °F 32.0 °F 43% 30.29 in 10.0 mi North 13.8 mph 25.3 mph N/A   Clear
12:53 PM 55.9 °F 32.0 °F 40% 30.30 in 10.0 mi North 19.6 mph 23.0 mph N/A   Clear
1:53 PM 57.9 °F 30.9 °F 36% 30.28 in 10.0 mi North 16.1 mph 21.9 mph N/A   Clear
2:53 PM 59.0 °F 32.0 °F 36% 30.25 in 10.0 mi North 13.8 mph 21.9 mph N/A   Clear
3:53 PM 60.1 °F 32.0 °F 35% 30.24 in 10.0 mi North 12.7 mph - N/A   Clear
4:53 PM 57.2 °F 30.2 °F 36% 30.24 in 10.0 mi North 10.4 mph - N/A   Clear
5:53 PM 59.0 °F 30.0 °F 33% 30.23 in 10.0 mi NNE 11.5 mph - N/A   Clear
6:53 PM 55.9 °F 30.0 °F 37% 30.24 in 10.0 mi NNE 6.9 mph - N/A   Clear
7:53 PM 51.1 °F 30.9 °F 46% 30.27 in 10.0 mi NNE 5.8 mph - N/A   Clear
8:53 PM 46.9 °F 30.9 °F 54% 30.27 in 10.0 mi NNE 4.6 mph - N/A   Clear
9:53 PM 48.0 °F 32.0 °F 54% 30.29 in 10.0 mi NNE 4.6 mph - N/A   Partly Cloudy
11:53 PM 48.9 °F 33.1 °F 54% 30.28 in 10.0 mi NE 6.9 mph - N/A   Overcast